DMSP 5D-2 F11 DEB, 29071

Orbit data source: Space-Track

DMSP 5D-2 F11 DEB, 29071 is space debris in SSO originally from a launch on Thu, 28 Nov 1991 UTC launched from the Air Force Western Test Range (AFWTR). Debris objects in space refer to the collection of defunct objects orbiting the Earth. Examples of debris include non-operational satellites, rocket bodies, and fragments generated from explosions, collisions, or faulty payload assembly.

Loading next visibility...
Identifier
29071, 1991-082BS
Orbit
SSO
Country
Flag of USUS
Related business
Manufacturer
Unknown
Mission
Spacecraft
Bus & Motor
Unknown
Mass
Unknown
Launch date (UTC)
1991-11-28 (35 years ago)
Launch vehicle
Unknown
Launch site
Air Force Western Test Range (AFWTR)
Object type
Payload
Rocket body
Debris
Shape & HBR
Unknown shape, 0.1 m
Radar Cross Section
Medium (>0.1 m² and <1 m²)

Expand to show TLE details & history
Last TLE update: 18 hours ago

TLE from 18 hours ago
0 DMSP 5D-2 F11 DEB
1 29071U 91082BS  26208.42664630  .00005417  00000-0  17481-2 0  9998
2 29071  98.9446 283.1552 0072107  71.6513 289.2499 14.38103863137446
Epoch: 2026-07-27T10:14Z
TLE epoch observation values (Epoch: 2026-07-27T10:14:22.240Z)
Latitude
0.00005°
Longitude
-175.54786°
Altitude
751.05 km
Speed
7.488 km/s
True Right ascension
18h 52m 37s
True Declination
0° 00' 00"
Sunlit
Object was in full shadow at epoch
Visualization orbit readout
Latitude
Unknown
Longitude
Unknown
Altitude
Unknown
Speed
Unknown
Apparent Right ascension
Unknown
Apparent Declination
Unknown
Sunlit
N/A
Visualization observer readout
Local Sidereal Time
18:06:55
Azimuth
Unknown
Elevation
Unknown
Doppler factor
Unknown
Orbital elements
Apogee altitude
813.401 km
Perigee altitude
710.431 km
Semi-major axis
7,140.053 km
Eccentricity
0.00721
Inclination
98.9446°
RAAN
283.1552°
Arg. of periapsis
71.6513°
True anomaly
288.46751°
Mean anomaly
289.2499°
Eccentric anomaly
288.85894°
Mean motion
3.59742 °/min
Orbital period
100.07 mins
BSTAR
0.0017481
Loading maneuver chart data...
Computing Atmospheric mass density...

Documentation

Showing up to 5 results
|